User: anonymous
Location: Churchill
(58.7670°N, 94.1670°W)
Time: 19:07:42
(UTC-05:00)
Language:

Cosmos 1315 Rocket - Orbit

View from above orbital plane
View from above orbital plane
View from above satellite
View from above satellite

Ground track
Ground track

The orbit data is extracted from the following two-line orbital elements,

1 12904U 81103B   14110.47568553  .00003169  00000-0  23639-3 0  4720
2 12904 081.1779 151.0151 0028817 254.4063 105.3977 15.02292926319389
Epoch (UTC): 20 April 2014 11:24:59
Eccentricity: 0.0028817
inclination: 81.1779°
perigee height: 540 km
apogee height: 580 km
right ascension of ascending node: 151.0151°
argument of perigee: 254.4063°
revolutions per day: 15.02292926
mean anomaly at epoch: 105.3977°
orbit number at epoch: 31938

The dashed part of the orbit path shows where the satellite is in the earth's shadow,  

DLR